Regional Weather Roundup
Issued by NWS Northern Indiana

Home | Current Version | Previous Version | Text Only | Print | Product List | Glossary Off
Versions: 1 2 3 4 5 6 7 8 9 10 11 12 13 14 15 16 17 18 19 20 21 22 23 24 25 26 27 28 29 30 31 32 33 34 35 36 37 38 39 40 41 42 43 44 45 46 47 48 49 50

000
ASUS43 KIWX 182310
RWRIWX

KIWX WEATHER ROUNDUP
NATIONAL WEATHER SERVICE NORTHERN INDIANA
700 PM EDT FRI APR 18 2014

NOTE: "FAIR" INDICATES FEW OR NO CLOUDS BELOW 12,000 FEET WITH NO
SIGNIFICANT WEATHER AND/OR OBSTRUCTIONS TO VISIBILITY.

* THESE STATIONS ARE NOT UNDER NWS QUALITY CONTROL. THEY ALSO MAY NOT
  REPORT WEATHER SUCH AS PRECIPITATION OR FOG.

INZ001>027-190000-
NORTHERN INDIANA

CITY           SKY/WX    TMP DP  RH WIND       PRES   REMARKS
GARY*          MOSUNNY   43  34  70 NE12      30.35S
VALPARAISO     SUNNY     46  34  62 N8        30.32S
MICHIGAN CITY* SUNNY     41  30  65 N8        30.34F
LAPORTE*       SUNNY     45  32  61 N14       30.32S
SOUTH BEND     NOT AVBL
ELKHART*       SUNNY     54  36  50 N10       30.30
GOSHEN         SUNNY     59  34  39 NW16      30.26S
MONTICELLO*    SUNNY     62  36  38 N16       30.25S
LOGANSPORT*    SUNNY     61  32  33 N13       30.26R
ROCHESTER*     SUNNY     61  34  36 N12       30.27S
WARSAW*        SUNNY     59  34  38 N12       30.26S
ANGOLA*        SUNNY     63  36  36 NW13      30.24S
FORT WAYNE     MOSUNNY   65  36  34 NW13      30.23F
HUNTINGTON*    FAIR      64  37  36 NW9       30.22F
PERU/GRISSOM   SUNNY     64  38  38 N15       30.24S
MARION*        SUNNY     65  35  32 NW10      30.23F

$$
INZ028>050-190000-
CENTRAL INDIANA

CITY           SKY/WX    TMP DP  RH WIND       PRES   REMARKS
LAFAYETTE      SUNNY     64  38  38 N12G21    30.24R
KOKOMO*          N/A    N/A N/A N/A MISG        N/A
MUNCIE*        SUNNY     65  39  38 NW14      30.22S
INDIANAPOLIS   MOSUNNY   66  39  37 N12       30.21F

$$
MIZ043>046-050>051-056>058-064>065-071>073-077>080-190000-
SOUTHWEST LOWER MICHIGAN

CITY           SKY/WX    TMP DP  RH WIND       PRES   REMARKS
BATTLE CREEK   SUNNY     57  34  41 NW14      30.28R
BENTON HARBOR  SUNNY     40  29  64 N7        30.34S
COLDWATER*     SUNNY     58  30  33 NW9       30.25S
HILLSDALE*     SUNNY     62  31  31 W14       30.23S
HOLLAND        SUNNY     43  29  57 NW12      30.34S
GRAND RAPIDS   MOSUNNY   56  32  40 NW12      30.29S
KALAMAZOO      SUNNY     55  33  43 NW14      30.29R
STURGIS*       SUNNY     57  34  41 N12       30.26S
THREE RIVERS*  FAIR      57  32  38 NW12      30.28S

$$
OHZ001>008-015>018-024>025-190000-
NORTHWEST OHIO

CITY           SKY/WX    TMP DP  RH WIND       PRES   REMARKS
WAUSEON*       FAIR      64  34  32 NW13G18   30.22S
DEFIANCE       SUNNY     66  33  29 NW7       30.22S
FINDLAY        SUNNY     66  38  35 NW10      30.20S
TOLEDO EXPRESS SUNNY     65  34  31 NW8       30.21S
TOLEDO METCALF PTSUNNY   58  41  53 NE13      30.23R
LIMA           MOSUNNY   66  39  37 NW13      30.21S

$$
&&



USA.gov is the U.S. government's official web portal to all federal, state and local government web resources and services.